EW9766 Weather Reports


time (UTC)temp
F
wind
direction
speed
knots
gust
knots
rain 1hr
in
rain 24hr
in
rain mn
in
humidity
%
barometer
mb
20200531064537 47 300 5.2 0.0 0.00 0.19 0.00 76 1013.4
20200531063034 47 274 5.2 0.0 0.00 0.19 0.00 76 1013.8
20200531061535 47 241 6.1 0.0 0.00 0.19 0.00 76 1013.8
20200531060033 47 255 4.3 0.0 0.00 0.19 0.00 78 1013.8
20200531054530 47 276 3.5 0.0 0.00 0.19 0.00 79 1013.8
20200531053035 47 302 3.5 0.0 0.00 0.19 0.00 80 1013.8
20200531051536 47 304 2.6 0.0 0.00 0.19 0.00 79 1013.4
20200531050039 47 314 2.6 0.0 0.00 0.19 0.00 79 1013.4
20200531044535 47 347 0.9 0.0 0.00 0.19 0.00 79 1013.4
20200531043032 47 342 1.7 0.0 0.00 0.19 0.00 78 1013.4
20200531041532 47 299 3.5 0.0 0.00 0.19 0.00 76 1013.4
20200531040031 48 290 4.3 0.0 0.00 0.19 0.00 74 1013.4
20200531034531 48 294 6.1 0.0 0.00 0.19 0.00 75 1013.1
20200531033036 48 302 3.5 0.0 0.00 0.19 0.00 76 1012.3
20200531031532 48 277 5.2 0.0 0.00 0.19 0.00 78 1012.0
20200531030029 48 327 7.8 0.0 0.00 0.19 0.00 78 1012.0
20200531024532 48 314 6.1 0.0 0.00 0.19 0.00 78 1012.3
20200531023032 48 311 7.8 0.0 0.00 0.19 0.00 79 1012.0
20200531021537 48 308 7.8 0.0 0.00 0.19 0.00 77 1012.0
20200531020036 49 300 7.8 0.0 0.00 0.19 0.00 77 1012.0
20200531014529 48 318 7.8 0.0 0.00 0.19 0.00 78 1011.6
20200531013032 49 316 7.0 0.0 0.00 0.19 0.00 80 1011.6
20200531011533 50 326 6.1 0.0 0.00 0.19 0.00 80 1011.2
20200531010032 49 313 7.8 0.0 0.00 0.19 0.00 81 1010.9
20200531004531 48 321 5.2 0.0 0.00 0.19 0.00 84 1010.9
20200531003032 48 312 6.1 0.0 0.00 0.19 0.00 84 1011.2
20200531001533 49 312 9.6 0.0 0.01 0.19 0.00 82 1010.9
20200531000043 50 306 7.0 0.0 0.01 0.19 0.00 81 1010.2
20200530234528 50 332 8.7 0.0 0.08 0.19 0.00 82 1009.8
20200530233035 50 326 4.3 0.0 0.19 0.19 0.00 82 1009.8
20200530231531 49 325 4.3 0.0 0.18 0.18 0.00 84 1009.1
20200530230031 50 347 6.1 0.0 0.18 0.18 0.00 81 1009.8
20200530224532 51 181 7.8 0.0 0.11 0.11 0.00 73 1010.2
20200530223034 52 215 7.8 0.0 0.00 0.00 0.00 70 1009.4
20200530221531 54 264 6.1 0.0 0.00 0.00 0.00 69 1009.1
20200530220033 57 314 5.2 0.0 0.00 0.00 0.00 65 1008.0
20200530214531 59 245 4.3 0.0 0.00 0.00 0.00 64 1008.0
20200530213041 62 50 5.2 0.0 0.00 0.00 0.00 61 1007.3
20200530211536 65 74 3.5 0.0 0.00 0.00 0.00 55 1007.3
20200530210032 67 194 3.5 0.0 0.00 0.00 0.00 55 1007.3
20200530204534 66 206 4.3 0.0 0.00 0.00 0.00 53 1006.9
20200530203031 72 206 8.7 0.0 0.00 0.00 0.00 48 1006.9
20200530201531 75 214 5.2 0.0 0.00 0.00 0.00 47 1006.2
20200530200035 76 230 5.2 0.0 0.00 0.00 0.00 49 1005.8
20200530194530 77 284 7.0 0.0 0.00 0.00 0.00 49 1005.5
20200530193028 78 297 7.0 0.0 0.00 0.00 0.00 49 1005.5
20200530191541 77 312 6.1 0.0 0.00 0.00 0.00 53 1005.8
20200530190031 76 349 5.2 0.0 0.00 0.00 0.00 56 1005.8
20200530184532 75 323 3.5 0.0 0.00 0.00 0.00 57 1005.8
20200530183034 75 338 2.6 0.0 0.00 0.00 0.00 57 1005.8
20200530181532 74 35 0.9 0.0 0.00 0.00 0.00 59 1005.8
20200530180034 72 71 0.9 0.0 0.00 0.00 0.00 62 1006.2
20200530174529 69 73 0.0 0.0 0.00 0.00 0.00 64 1006.5
20200530173102 68 27 0.0 0.0 0.00 0.00 0.00 64 1006.9
20200530171529 69 314 1.7 0.0 0.00 0.00 0.00 65 1006.9
20200530170031 69 318 2.6 0.0 0.00 0.00 0.00 65 1006.9
20200530164530 69 318 2.6 0.0 0.00 0.00 0.00 64 1007.3
20200530163036 70 55 0.9 0.0 0.00 0.00 0.00 62 1007.3
20200530161540 69 133 0.9 0.0 0.00 0.00 0.00 63 1008.0
20200530160031 67 79 0.9 0.0 0.00 0.00 0.00 66 1008.4
20200530154538 65 310 0.0 0.0 0.00 0.00 0.00 68 1008.4
20200530153032 64 297 0.9 0.0 0.00 0.00 0.00 71 1008.4
20200530151531 62 27 0.0 0.0 0.00 0.00 0.00 75 1008.4
20200530150029 62 330 0.9 0.0 0.00 0.00 0.00 73 1008.4
20200530144529 63 46 2.6 0.0 0.00 0.00 0.00 74 1008.7
20200530143030 63 354 0.9 0.0 0.00 0.00 0.00 74 1009.1
20200530141536 62 331 2.6 0.0 0.00 0.00 0.00 76 1009.1
20200530140029 61 93 1.7 0.0 0.00 0.00 0.00 78 1008.7
20200530134532 60 182 0.9 0.0 0.00 0.00 0.00 77 1008.4
20200530133031 60 197 2.6 0.0 0.00 0.00 0.00 76 1008.0
20200530131529 60 180 1.7 0.0 0.00 0.00 0.00 74 1008.0
20200530130031 60 214 0.0 0.0 0.00 0.00 0.00 73 1008.4
20200530124530 61 94 0.0 0.0 0.00 0.00 0.00 71 1008.4
20200530123037 62 193 1.7 0.0 0.00 0.00 0.00 68 1008.4
20200530121530 62 159 2.6 0.0 0.00 0.00 0.00 68 1008.4
20200530120033 62 161 3.5 0.0 0.00 0.00 0.00 69 1008.7
20200530114530 61 166 3.5 0.0 0.00 0.00 0.00 70 1008.7
20200530113032 61 140 2.6 0.0 0.00 0.00 0.00 70 1008.7
20200530111532 62 174 2.6 0.0 0.00 0.00 0.00 69 1008.7
20200530110030 61 166 4.3 0.0 0.00 0.00 0.00 71 1008.4
20200530104532 60 148 3.5 0.0 0.00 0.00 0.00 72 1008.4
20200530103033 60 170 2.6 0.0 0.00 0.00 0.00 72 1008.7
20200530101535 60 172 0.0 0.0 0.00 0.00 0.00 70 1008.7
20200530100032 61 179 3.5 0.0 0.00 0.00 0.00 70 1008.7
20200530094531 61 139 1.7 0.0 0.00 0.00 0.00 69 1009.1
20200530093029 62 187 2.6 0.0 0.00 0.00 0.00 67 1009.4
20200530091533 62 135 2.6 0.0 0.00 0.00 0.00 65 1009.4
20200530090029 64 178 1.7 0.0 0.00 0.00 0.00 63 1009.8
20200530084532 64 160 2.6 0.0 0.00 0.00 0.00 63 1009.8
20200530083033 63 149 3.5 0.0 0.00 0.00 0.00 64 1010.2
20200530081536 63 165 2.6 0.0 0.00 0.00 0.00 63 1010.2
20200530080036 64 178 2.6 0.0 0.00 0.00 0.00 62 1010.2
20200530074529 64 154 2.6 0.0 0.00 0.00 0.00 62 1010.2
20200530073032 64 142 3.5 0.0 0.00 0.00 0.00 62 1010.2
20200530071530 64 169 3.5 0.0 0.00 0.00 0.00 61 1010.5
20200530070030 66 145 2.6 0.0 0.00 0.00 0.00 58 1010.5